Погода в Черняеве

Россия / Амурская область     52°47′25″N   125°59′56″E
В апреле 2022 года жителям России запретили посещать сайт meteo.paraplan.net по решению Генеральной прокуратуры. Аудитория сайта уменьшилась в 10 раз. Владельцы сайта не видят смысла в поддержке погодного сервера в таких условиях. Сайт будет закрыт в октябре.
темп.,
°C
ветер,
м/с
пор.,
м/с
влажн.,
%
обл.,
%
осадки,
мм/ч
давл.,
гПа
погр.,
м
30 сентября, пт
пт3000:00+3сз1598100 0.6 1010573
03:00+1сз3897100 0.9 1012516
06:00+1сз3690100 0.1 1014641
09:00+1сз3586100 0.1 1015579
12:00+5ссз2363100 0.0 1014817
15:00+6сз2353100 0.0 10131055
18:00+4зсз2270100 0.0 101419
21:00+2зсз1179100 0.0 101511
1 октября, сб
сб100:000зсз11890 0.0 101810
03:00−1зсз11895 0.0 101910
06:00−1зюз118898 0.0 102010
09:00+4ю12625 0.0 1020229
12:00+9ююв34433 0.0 1019944
15:00+10ююв3642100 0.0 10171199
18:00+7юв31154100 0.0 1016361
21:00+6ююв31260100 0.0 1016393
2 октября, вс
вс200:00+5ю2668100 0.1 1015188
03:00+4ююв2795100 4.9 1014270
06:00+5ююв2793100 0.3 1012267
09:00+6юз2687100 0.3 1012257
12:00+10зсз5759100 0.0 10121349
15:00+10зсз5846100 0.0 10121620
18:00+6зсз3758100 0.0 1014263
21:00+4з3106594 0.0 1015392
3 октября, пн
пн300:000зсз5116945 0.0 1017651
03:00−1зсз411755 0.0 1018523
06:00−1зсз511693 0.0 1019650
09:00+1сз585445 0.0 1019974
12:00+3сз5749100 0.0 10191626
15:00+4ссз5846100 0.0 10181828
18:00+1ссз5105581 0.0 10191286
21:000сз5105889 0.0 1020907
4 октября, вт
вт400:00−1сз5115721 0.0 1019885
03:00−2сз5115536 0.0 1018854
06:00−2сз511555 0.0 1018971
09:000ссз611465 0.0 10181225
12:00+3ссз693386 0.0 10171930
15:00+4ссз5933100 0.0 10162418
18:00+2ссз51047100 0.0 1017825
21:00−1сз412595 0.0 1018679